Simultaneous Nadir Overpasses (SNOs) Predictions

Prediction of SNOs between AQUA and NOAA-19 Satellite Orbit:

Table of predicted SNOs for the next 14.0 days since TLE Epoch: 10/24/2020
Index Date (AQUA) Time (AQUA) Lat,Lon (AQUA) SZA (AQUA ) Date (NOAA-19) Time (NOAA-19) Lat,Lon (NOAA-19) SZA (NOAA-19 ) Distance(km) Time Diff (sec)
1 10/25/2020 21:12:41 79.44,-164.56 92.64 10/25/2020 21:12:44 79.44,-164.47 92.64 1.80 3
2 10/28/2020 02:46:25 -79.43, -67.93 86.63 10/28/2020 02:46:02 -79.43, -67.80 86.63 2.74 23
3 10/28/2020 03:35:52 79.45, 99.60 93.41 10/28/2020 03:36:59 79.43, 99.45 93.39 3.28 67
4 10/30/2020 08:20:09 79.42, 28.69 94.10 10/30/2020 08:19:14 79.41, 28.74 94.10 1.88 55
5 10/30/2020 09:09:36 -79.44,-163.80 85.87 10/30/2020 09:10:17 -79.44,-163.73 85.89 1.52 41
6 11/01/2020 13:53:47 -79.19, 126.77 85.51 11/01/2020 13:52:43 -79.09, 122.70 85.29 85.80 64
7 11/01/2020 14:43:20 79.44, -67.22 94.85 11/01/2020 14:43:28 79.42, -67.07 94.82 3.39 8
8 11/03/2020 20:17:03 -79.40, 29.57 84.51 11/03/2020 20:16:48 -79.40, 29.44 84.50 2.85 15
9 11/03/2020 21:06:29 79.42,-162.89 95.53 11/03/2020 21:07:41 79.44,-162.88 95.53 2.38 72
10 11/06/2020 01:50:46 79.41, 126.10 96.18 11/06/2020 01:49:57 79.38, 126.11 96.17 2.89 49
